Rochelle, IL

8:33 AM CDT on September 19, 2019 (GMT -0500)
Rochelle

Weather History for KRPJ - August, 2019

Change the Weather History Date:

Wednesday, August 21, 2019

  Actual Average (KRFD) Record (KRFD)
Temperature  
Mean Temperature 70 °F -  
Max Temperature 79 °F 81 °F 100 °F (1955)
Min Temperature 60 °F 59 °F 45 °F (1950)
Cooling Degree Days 4    
Growing Degree Days 20 (Base 50)    
Moisture  
Dew Point 68 °F    
Average Humidity 95    
Maximum Humidity 100    
Minimum Humidity 80    
Precipitation  
Precipitation 0.14 in - - ()
Sea Level Pressure  
Sea Level Pressure 29.99 in    
Wind  
Wind Speed 2 mph ()    
Max Wind Speed 14 mph    
Max Gust Speed 28 mph    
Visibility 7.6 miles    
Events Fog , Rain , Thunderstorm    
Averages and records for this station are not official NWS values.
T = Trace of Precipitation, MM = Missing Value Source: Averaged Metar Reports

Daily Weather History Graph

Daily Weather History Graph

Search for Another Location

Airport or City:

Astronomy

Aug. 21, 2019 Rise Set
Actual Time 6:10 AM CDT 7:47 PM CDT
Civil Twilight 5:40 AM CDT 8:17 PM CDT
Nautical Twilight 5:05 AM CDT 8:52 PM CDT
Astronomical Twilight 4:26 AM CDT 9:30 PM CDT
Moon 10:59 PM CDT (8/21) 11:51 AM CDT (8/21)
Length of Visible Light 14h 36m
Length of Day
13h 37m
Waning Gibbous, 69% of the Moon is Illuminated
Aug 21
Waning Gibbous
Aug 23
Last Quarter
Aug 30
New
Sep 5
First Quarter
Sep 13
Full

Hourly Weather History & Observations

Time (CDT) Temp. Dew Point Humidity Pressure Visibility Wind Dir Wind Speed Gust Speed Precip Events Conditions
12:15 AM 63.5 °F 63.5 °F 100% 30.00 in 4.0 mi Calm Calm - N/A   Clear
12:35 AM 63.5 °F 63.5 °F 100% 30.01 in 7.0 mi Calm Calm - N/A   Clear
12:55 AM 63.1 °F 63.1 °F 100% 30.00 in 7.0 mi Calm Calm - N/A   Clear
1:15 AM 63.0 °F 63.0 °F 100% 30.00 in 10.0 mi Calm Calm - N/A   Clear
1:35 AM 62.8 °F 62.8 °F 100% 29.99 in 10.0 mi Calm Calm - N/A   Clear
1:55 AM 63.0 °F 63.0 °F 100% 29.99 in 7.0 mi Calm Calm - N/A   Mostly Cloudy
2:15 AM 63.5 °F 63.5 °F 100% 29.99 in 7.0 mi Calm Calm - N/A   Overcast
2:35 AM 64.0 °F 64.0 °F 100% 29.99 in 7.0 mi Calm Calm - N/A   Overcast
2:55 AM 63.9 °F 63.9 °F 100% 29.98 in 5.0 mi Calm Calm - N/A   Scattered Clouds
3:15 AM 63.3 °F 63.3 °F 100% 29.98 in 4.0 mi Calm Calm - N/A   Clear
3:35 AM 62.6 °F 62.6 °F 100% 29.98 in 3.0 mi Calm Calm - N/A   Clear
3:55 AM 62.2 °F 62.2 °F 100% 29.98 in 1.5 mi Calm Calm - N/A   Mist
4:15 AM 61.9 °F 61.9 °F 100% 29.96 in 0.5 mi Calm Calm - N/A Fog Fog
4:35 AM 61.2 °F 61.2 °F 100% 29.95 in 0.5 mi Calm Calm - N/A Fog Fog
4:55 AM 61.2 °F 61.2 °F 100% 29.94 in 0.5 mi Calm Calm - N/A Fog Fog
5:10 AM 61.7 °F 61.7 °F 100% 29.94 in 0.2 mi Calm Calm - N/A Fog Fog
5:35 AM 61.0 °F 61.0 °F 100% 29.94 in 0.8 mi Calm Calm - N/A   Overcast
5:55 AM 60.8 °F 60.8 °F 100% 29.95 in 0.5 mi Calm Calm - N/A Fog Fog
6:15 AM 61.2 °F 61.2 °F 100% 29.96 in 0.5 mi Calm Calm - N/A Fog Fog
6:35 AM 61.2 °F 61.2 °F 100% 29.98 in 0.2 mi Calm Calm - N/A Fog Fog
6:55 AM 61.9 °F 61.9 °F 100% 29.99 in 2.5 mi Calm Calm - N/A   Overcast
7:15 AM 63.7 °F 63.7 °F 100% 29.99 in 2.5 mi Calm Calm - N/A   Overcast
7:35 AM 64.9 °F 64.9 °F 100% 29.99 in 2.5 mi Calm Calm - N/A   Overcast
7:55 AM 66.2 °F 66.2 °F 100% 29.99 in 1.8 mi Calm Calm - N/A   Overcast
8:15 AM 68.0 °F 68.0 °F 100% 30.00 in 5.0 mi Calm Calm - N/A   Mostly Cloudy
8:35 AM 69.3 °F 69.3 °F 100% 30.00 in 7.0 mi WSW 3.5 mph - N/A   Scattered Clouds
8:55 AM 70.2 °F 70.2 °F 100% 29.99 in 10.0 mi Calm Calm - N/A   Scattered Clouds
9:20 AM 72.1 °F 71.6 °F 98% 29.98 in 10.0 mi Calm Calm - N/A   Clear
9:35 AM 73.0 °F 71.8 °F 96% 29.99 in 10.0 mi West 4.6 mph - N/A   Clear
9:55 AM 73.8 °F 72.3 °F 95% 29.99 in 10.0 mi Calm Calm - N/A   Clear
10:15 AM 74.8 °F 72.5 °F 92% 29.99 in 10.0 mi WSW 4.6 mph - N/A   Clear
10:35 AM 75.9 °F 72.5 °F 89% 30.00 in 10.0 mi WSW 4.6 mph - N/A   Clear
10:55 AM 77.2 °F 73.2 °F 88% 30.00 in 10.0 mi West 6.9 mph - N/A   Scattered Clouds
11:15 AM 78.1 °F 73.0 °F 84% 30.01 in 10.0 mi West 10.4 mph - N/A   Mostly Cloudy
11:35 AM 78.8 °F 73.0 °F 82% 30.02 in 10.0 mi WNW 5.8 mph - N/A   Mostly Cloudy
11:55 AM 79.3 °F 73.4 °F 82% 30.02 in 10.0 mi WSW 8.1 mph - N/A   Mostly Cloudy
12:15 PM 79.3 °F 72.9 °F 80% 30.02 in 10.0 mi West 8.1 mph - N/A   Mostly Cloudy
12:35 PM 79.3 °F 72.9 °F 80% 30.02 in 10.0 mi West 13.8 mph - N/A   Mostly Cloudy
1:15 PM 78.6 °F 73.2 °F 83% 30.00 in 10.0 mi SW 10.4 mph - N/A   Mostly Cloudy
1:35 PM 77.5 °F 72.5 °F 84% 29.99 in 10.0 mi WSW 8.1 mph - N/A   Overcast
1:55 PM 77.2 °F 73.2 °F 88% 30.01 in 10.0 mi WSW 9.2 mph - N/A Thunderstorm Mostly Cloudy
2:15 PM 76.3 °F 73.0 °F 90% 30.00 in 10.0 mi WSW 8.1 mph - N/A Thunderstorm Mostly Cloudy
2:35 PM 75.9 °F 73.4 °F 92% 30.01 in 10.0 mi WSW 10.4 mph - N/A Thunderstorm Mostly Cloudy
2:55 PM 68.5 °F 67.3 °F 96% 30.00 in 2.0 mi NW 8.1 mph 27.6 mph 0.13 in Rain , Thunderstorm Thunderstorms and Rain
3:15 PM 69.8 °F 68.5 °F 96% 30.01 in 10.0 mi Calm Calm - 0.01 in Rain , Thunderstorm Light Thunderstorms and Rain
3:35 PM 70.3 °F 68.5 °F 94% 30.00 in 10.0 mi Calm Calm - 0.01 in Thunderstorm Scattered Clouds
3:55 PM 70.7 °F 67.3 °F 89% 29.99 in 10.0 mi Calm Calm - 0.01 in   Scattered Clouds
4:15 PM 71.1 °F 68.7 °F 92% 29.97 in 10.0 mi Calm Calm - N/A   Light Drizzle
4:35 PM 71.6 °F 69.1 °F 92% 29.96 in 10.0 mi Calm Calm - N/A   Scattered Clouds
4:55 PM 72.3 °F 70.3 °F 93% 29.95 in 10.0 mi WNW 4.6 mph - N/A   Light Drizzle
5:15 PM 72.1 °F 70.5 °F 95% 29.96 in 10.0 mi WNW 4.6 mph - N/A   Clear
5:35 PM 72.5 °F 70.7 °F 94% 29.95 in 10.0 mi West 5.8 mph - N/A   Clear
5:55 PM 73.0 °F 71.8 °F 96% 29.94 in 10.0 mi WNW 4.6 mph - N/A   Clear
6:15 PM 73.0 °F 71.6 °F 95% 29.94 in 10.0 mi NW 5.8 mph - N/A   Clear
6:35 PM 72.7 °F 71.8 °F 97% 29.94 in 10.0 mi NW 5.8 mph - N/A   Clear
6:55 PM 72.5 °F 72.0 °F 98% 29.94 in 10.0 mi NW 3.5 mph - N/A   Clear
7:15 PM 72.5 °F 71.6 °F 97% 29.95 in 10.0 mi WNW 5.8 mph - N/A   Clear
7:35 PM 72.5 °F 70.2 °F 92% 29.96 in 10.0 mi NW 5.8 mph - N/A   Clear
7:55 PM 71.8 °F 69.4 °F 92% 29.96 in 10.0 mi NW 3.5 mph - N/A   Clear
8:15 PM 71.2 °F 68.9 °F 92% 29.98 in 10.0 mi NW 4.6 mph - N/A   Clear
8:35 PM 70.7 °F 68.2 °F 92% 29.99 in 10.0 mi NW 3.5 mph - N/A   Clear
8:55 PM 70.2 °F 68.4 °F 94% 30.00 in 10.0 mi WNW 4.6 mph - N/A   Clear
9:15 PM 70.0 °F 67.8 °F 93% 30.01 in 10.0 mi NW 3.5 mph - N/A   Clear
9:35 PM 69.4 °F 67.8 °F 95% 30.02 in 10.0 mi WNW 3.5 mph - N/A   Clear
9:55 PM 68.9 °F 68.0 °F 97% 30.02 in 10.0 mi Calm Calm - N/A   Clear
10:15 PM 68.5 °F 67.3 °F 96% 30.01 in 10.0 mi Calm Calm - N/A   Clear
10:35 PM 68.4 °F 67.5 °F 97% 30.02 in 10.0 mi WNW 4.6 mph - N/A   Scattered Clouds
10:55 PM 68.2 °F 67.1 °F 96% 30.02 in 10.0 mi NW 3.5 mph - N/A   Scattered Clouds
11:15 PM 68.2 °F 66.4 °F 94% 30.02 in 10.0 mi North 4.6 mph - N/A   Scattered Clouds
11:35 PM 67.5 °F 66.2 °F 96% 30.02 in 10.0 mi NNW 3.5 mph - N/A   Clear
11:55 PM 67.5 °F 66.0 °F 95% 30.03 in 10.0 mi Calm Calm - N/A   Scattered Clouds